No.3tokuyomaru — JD3132 — position and weather

sailwx.info

Track history (hours):
 
Tides and Currents Weather Stations Pressure Air Temp Water Temp Dewpoint Dewpoint Depression Visibility Wind Speed Wind Dir Waves Ship Positions

No.3tokuyomaru

Last reported at 2014-Jul-25 13:25 UTC. Time now 2014-Jul-25 16:04 UTC.
Position N 34°60' E 139°28'.

Length 67 m; draft 4.6 m.

Type: Tanker. MMSI: 431002151.

Date/timePositionNaut miles runAvg speedWind from/ knotsBaromVisibWave heightAir tempDewpointWater temp
2014-Jul-25 13:25N 34°60' E 139°28'1112.5
2014-Jul-25 12:33N 35°06' E 139°39'1212.0
2014-Jul-25 11:33N 35°16' E 139°46'1111.0
2014-Jul-25 10:33N 35°27' E 139°47'1312.8
2014-Jul-25 09:33N 35°32' E 140°01'2 1.6
2014-Jul-25 08:30N 35°32' E 140°03'0 0.0
2014-Jul-25 07:33N 35°32' E 140°03'0 0.0
2014-Jul-25 06:15N 35°32' E 140°03'0 0.0
2014-Jul-25 05:21N 35°32' E 140°03'0 0.0
2014-Jul-25 04:33N 35°32' E 140°03'2 1.8
2014-Jul-25 03:33N 35°32' E 140°01'5 4.5
2014-Jul-25 02:22N 35°29' E 139°56'0 0.0
2014-Jul-25 01:22N 35°29' E 139°56'0 0.0
2014-Jul-25 00:31N 35°29' E 139°56'0 0.0
2014-Jul-24 23:31N 35°29' E 139°56'0 0.0
2014-Jul-24 22:31N 35°29' E 139°56'0 0.0
2014-Jul-24 21:28N 35°29' E 139°56'0 0.0
2014-Jul-24 20:31N 35°29' E 139°56'0 0.0
2014-Jul-24 19:28N 35°29' E 139°56'8 8.9
2014-Jul-24 18:33N 35°25' E 139°47'1111.4
2014-Jul-24 17:33N 35°14' E 139°47'1212.4
2014-Jul-24 16:33N 35°01' E 139°44'17 8.4
2014-Jul-24 14:33N 34°56' E 140°03'2912.1
2014-Jul-24 12:09N 35°14' E 140°31'2113.5
2014-Jul-24 10:33N 35°31' E 140°47'23 7.4
2014-Jul-24 07:28N 35°54' E 140°41'0 0.0
2014-Jul-24 03:21N 35°54' E 140°41'4 0.5
2014-Jul-23 19:09N 35°57' E 140°42'7 8.4
2014-Jul-23 18:22N 35°53' E 140°48'1012.4
2014-Jul-23 17:33N 35°45' E 140°55'4312.4
2014-Jul-23 14:07N 35°09' E 140°26'1014.3
2014-Jul-23 13:25N 35°03' E 140°16'1214.0
2014-Jul-23 12:32N 34°57' E 140°04'1412.3
2014-Jul-23 11:23N 34°54' E 139°47'1112.7
2014-Jul-23 10:33N 35°04' E 139°44'1212.3
2014-Jul-23 09:33N 35°16' E 139°46'1010.5
2014-Jul-23 08:33N 35°27' E 139°47'1212.2
2014-Jul-23 07:33N 35°32' E 140°00'3 2.5
2014-Jul-23 06:31N 35°32' E 140°03'0 0.0
2014-Jul-23 05:31N 35°32' E 140°03'0 0.0
2014-Jul-23 04:28N 35°32' E 140°03'0 0.0
2014-Jul-23 03:25N 35°32' E 140°03'0 0.0
2014-Jul-23 02:28N 35°32' E 140°03'3 2.9
2014-Jul-23 01:33N 35°31' E 140°00'5 4.3
2014-Jul-23 00:31N 35°29' E 139°55'0 0.0
2014-Jul-22 23:31N 35°29' E 139°55'0 0.0
2014-Jul-22 22:31N 35°29' E 139°55'0 0.1
2014-Jul-22 21:31N 35°29' E 139°55'0 0.1
2014-Jul-22 20:31N 35°29' E 139°55'0 0.0
2014-Jul-22 19:31N 35°29' E 139°55'0 0.0
2014-Jul-22 18:31N 35°29' E 139°55'0 0.0
2014-Jul-22 17:31N 35°29' E 139°55'0 0.0
2014-Jul-22 16:32N 35°29' E 139°55'1111.1
2014-Jul-22 15:34N 35°22' E 139°45'1312.5
2014-Jul-22 14:34N 35°10' E 139°46'1312.5
2014-Jul-22 13:32N 34°57' E 139°44'12 9.8
2014-Jul-22 12:20N 34°53' E 139°57'7510.4
2014-Jul-22 05:08N 35°57' E 140°44'4 0.7
2014-Jul-21 23:15N 35°54' E 140°41'4 0.5
2014-Jul-21 15:14N 35°57' E 140°42'6 9.5
2014-Jul-21 14:33N 35°53' E 140°48'1510.5
2014-Jul-21 13:10N 35°39' E 140°53'912.0
2014-Jul-21 12:27N 35°32' E 140°47'1112.8
2014-Jul-21 11:33N 35°22' E 140°39'2612.4
2014-Jul-21 09:29N 35°04' E 140°17'1212.5
2014-Jul-21 08:32N 34°57' E 140°05'1610.9
2014-Jul-21 07:03N 34°55' E 139°46'713.4
2014-Jul-21 06:33N 35°01' E 139°44'1312.7
2014-Jul-21 05:33N 35°14' E 139°46'1211.5
2014-Jul-21 04:33N 35°25' E 139°44'1312.9
2014-Jul-21 03:33N 35°32' E 139°58'5 4.3
2014-Jul-21 02:28N 35°32' E 140°03'0 0.0
2014-Jul-21 01:31N 35°32' E 140°03'0 0.0
2014-Jul-21 00:28N 35°32' E 140°03'0 0.0
2014-Jul-20 23:31N 35°32' E 140°03'2 1.6
2014-Jul-20 22:33N 35°32' E 140°02'7 7.3
2014-Jul-20 21:32N 35°37' E 139°54'0 0.0
2014-Jul-20 20:29N 35°37' E 139°54'0 0.0
2014-Jul-20 19:32N 35°37' E 139°54'0 0.0
2014-Jul-20 18:32N 35°37' E 139°54'0 0.1
2014-Jul-20 17:32N 35°37' E 139°54'0 0.0
2014-Jul-20 16:32N 35°37' E 139°54'0 0.0
2014-Jul-20 15:32N 35°37' E 139°54'0 0.0
2014-Jul-20 14:32N 35°37' E 139°54'0 0.0
2014-Jul-20 13:26N 35°37' E 139°54'0 0.0
2014-Jul-20 12:32N 35°37' E 139°54'0 0.0
2014-Jul-20 11:32N 35°37' E 139°54'0 0.0
2014-Jul-20 10:32N 35°37' E 139°54'0 0.0
2014-Jul-20 09:29N 35°37' E 139°54'0 0.0
2014-Jul-20 08:32N 35°37' E 139°54'0 0.0
2014-Jul-20 07:29N 35°37' E 139°54'0 0.0
2014-Jul-20 06:32N 35°37' E 139°54'0 0.0
2014-Jul-20 05:32N 35°37' E 139°54'0 0.0
2014-Jul-20 04:29N 35°37' E 139°54'0 0.0
2014-Jul-20 03:29N 35°37' E 139°54'0 0.0
2014-Jul-20 02:32N 35°37' E 139°54'0 0.1
2014-Jul-20 01:32N 35°37' E 139°54'0 0.0
2014-Jul-20 00:29N 35°37' E 139°54'0 0.0
2014-Jul-19 23:32N 35°37' E 139°54'0 0.0
2014-Jul-19 22:32N 35°37' E 139°54'0 0.0
2014-Jul-19 21:32N 35°37' E 139°54'0 0.0
2014-Jul-19 20:32N 35°37' E 139°54'0 0.0
2014-Jul-19 19:29N 35°37' E 139°54'0 0.0
2014-Jul-19 18:32N 35°37' E 139°54'0 0.0
2014-Jul-19 17:26N 35°37' E 139°54'1 1.1
2014-Jul-19 16:33N 35°36' E 139°54'1212.2
2014-Jul-19 15:34N 35°25' E 139°47'1110.9
2014-Jul-19 14:34N 35°14' E 139°47'1312.6
2014-Jul-19 13:33N 35°02' E 139°44'20 8.2
2014-Jul-19 11:04N 34°59' E 140°09'6411.0
2014-Jul-19 05:13N 35°57' E 140°44'  
2014-Jul-16 21:28N 35°58' E 140°42'  
Track history (hours):
 
Tides and Currents Weather Stations Pressure Air Temp Water Temp Dewpoint Dewpoint Depression Visibility Wind Speed Wind Dir Waves Ship Positions

No.3tokuyomaru

Last reported at 2014-Jul-25 13:25 UTC. Time now 2014-Jul-25 16:04 UTC.
Position N 34°60' E 139°28'.

Length 67 m; draft 4.6 m.

Type: Tanker. MMSI: 431002151.

Date/timePositionNaut miles runAvg speedWind from/ knotsBaromVisibWave heightAir tempDewpointWater temp
2014-Jul-25 13:25N 34°60' E 139°28'1112.5
2014-Jul-25 12:33N 35°06' E 139°39'1212.0
2014-Jul-25 11:33N 35°16' E 139°46'1111.0
2014-Jul-25 10:33N 35°27' E 139°47'1312.8
2014-Jul-25 09:33N 35°32' E 140°01'2 1.6
2014-Jul-25 08:30N 35°32' E 140°03'0 0.0
2014-Jul-25 07:33N 35°32' E 140°03'0 0.0
2014-Jul-25 06:15N 35°32' E 140°03'0 0.0
2014-Jul-25 05:21N 35°32' E 140°03'0 0.0
2014-Jul-25 04:33N 35°32' E 140°03'2 1.8
2014-Jul-25 03:33N 35°32' E 140°01'5 4.5
2014-Jul-25 02:22N 35°29' E 139°56'0 0.0
2014-Jul-25 01:22N 35°29' E 139°56'0 0.0
2014-Jul-25 00:31N 35°29' E 139°56'0 0.0
2014-Jul-24 23:31N 35°29' E 139°56'0 0.0
2014-Jul-24 22:31N 35°29' E 139°56'0 0.0
2014-Jul-24 21:28N 35°29' E 139°56'0 0.0
2014-Jul-24 20:31N 35°29' E 139°56'0 0.0
2014-Jul-24 19:28N 35°29' E 139°56'8 8.9
2014-Jul-24 18:33N 35°25' E 139°47'1111.4
2014-Jul-24 17:33N 35°14' E 139°47'1212.4
2014-Jul-24 16:33N 35°01' E 139°44'17 8.4
2014-Jul-24 14:33N 34°56' E 140°03'2912.1
2014-Jul-24 12:09N 35°14' E 140°31'2113.5
2014-Jul-24 10:33N 35°31' E 140°47'23 7.4
2014-Jul-24 07:28N 35°54' E 140°41'0 0.0
2014-Jul-24 03:21N 35°54' E 140°41'4 0.5
2014-Jul-23 19:09N 35°57' E 140°42'7 8.4
2014-Jul-23 18:22N 35°53' E 140°48'1012.4
2014-Jul-23 17:33N 35°45' E 140°55'4312.4
2014-Jul-23 14:07N 35°09' E 140°26'1014.3
2014-Jul-23 13:25N 35°03' E 140°16'1214.0
2014-Jul-23 12:32N 34°57' E 140°04'1412.3
2014-Jul-23 11:23N 34°54' E 139°47'1112.7
2014-Jul-23 10:33N 35°04' E 139°44'1212.3
2014-Jul-23 09:33N 35°16' E 139°46'1010.5
2014-Jul-23 08:33N 35°27' E 139°47'1212.2
2014-Jul-23 07:33N 35°32' E 140°00'3 2.5
2014-Jul-23 06:31N 35°32' E 140°03'0 0.0
2014-Jul-23 05:31N 35°32' E 140°03'0 0.0
2014-Jul-23 04:28N 35°32' E 140°03'0 0.0
2014-Jul-23 03:25N 35°32' E 140°03'0 0.0
2014-Jul-23 02:28N 35°32' E 140°03'3 2.9
2014-Jul-23 01:33N 35°31' E 140°00'5 4.3
2014-Jul-23 00:31N 35°29' E 139°55'0 0.0
2014-Jul-22 23:31N 35°29' E 139°55'0 0.0
2014-Jul-22 22:31N 35°29' E 139°55'0 0.1
2014-Jul-22 21:31N 35°29' E 139°55'0 0.1
2014-Jul-22 20:31N 35°29' E 139°55'0 0.0
2014-Jul-22 19:31N 35°29' E 139°55'0 0.0
2014-Jul-22 18:31N 35°29' E 139°55'0 0.0
2014-Jul-22 17:31N 35°29' E 139°55'0 0.0
2014-Jul-22 16:32N 35°29' E 139°55'1111.1
2014-Jul-22 15:34N 35°22' E 139°45'1312.5
2014-Jul-22 14:34N 35°10' E 139°46'1312.5
2014-Jul-22 13:32N 34°57' E 139°44'12 9.8
2014-Jul-22 12:20N 34°53' E 139°57'7510.4
2014-Jul-22 05:08N 35°57' E 140°44'4 0.7
2014-Jul-21 23:15N 35°54' E 140°41'4 0.5
2014-Jul-21 15:14N 35°57' E 140°42'6 9.5
2014-Jul-21 14:33N 35°53' E 140°48'1510.5
2014-Jul-21 13:10N 35°39' E 140°53'912.0
2014-Jul-21 12:27N 35°32' E 140°47'1112.8
2014-Jul-21 11:33N 35°22' E 140°39'2612.4
2014-Jul-21 09:29N 35°04' E 140°17'1212.5
2014-Jul-21 08:32N 34°57' E 140°05'1610.9
2014-Jul-21 07:03N 34°55' E 139°46'713.4
2014-Jul-21 06:33N 35°01' E 139°44'1312.7
2014-Jul-21 05:33N 35°14' E 139°46'1211.5
2014-Jul-21 04:33N 35°25' E 139°44'1312.9
2014-Jul-21 03:33N 35°32' E 139°58'5 4.3
2014-Jul-21 02:28N 35°32' E 140°03'0 0.0
2014-Jul-21 01:31N 35°32' E 140°03'0 0.0
2014-Jul-21 00:28N 35°32' E 140°03'0 0.0
2014-Jul-20 23:31N 35°32' E 140°03'2 1.6
2014-Jul-20 22:33N 35°32' E 140°02'7 7.3
2014-Jul-20 21:32N 35°37' E 139°54'0 0.0
2014-Jul-20 20:29N 35°37' E 139°54'0 0.0
2014-Jul-20 19:32N 35°37' E 139°54'0 0.0
2014-Jul-20 18:32N 35°37' E 139°54'0 0.1
2014-Jul-20 17:32N 35°37' E 139°54'0 0.0
2014-Jul-20 16:32N 35°37' E 139°54'0 0.0
2014-Jul-20 15:32N 35°37' E 139°54'0 0.0
2014-Jul-20 14:32N 35°37' E 139°54'0 0.0
2014-Jul-20 13:26N 35°37' E 139°54'0 0.0
2014-Jul-20 12:32N 35°37' E 139°54'0 0.0
2014-Jul-20 11:32N 35°37' E 139°54'0 0.0
2014-Jul-20 10:32N 35°37' E 139°54'0 0.0
2014-Jul-20 09:29N 35°37' E 139°54'0 0.0
2014-Jul-20 08:32N 35°37' E 139°54'0 0.0
2014-Jul-20 07:29N 35°37' E 139°54'0 0.0
2014-Jul-20 06:32N 35°37' E 139°54'0 0.0
2014-Jul-20 05:32N 35°37' E 139°54'0 0.0
2014-Jul-20 04:29N 35°37' E 139°54'0 0.0
2014-Jul-20 03:29N 35°37' E 139°54'0 0.0
2014-Jul-20 02:32N 35°37' E 139°54'0 0.1
2014-Jul-20 01:32N 35°37' E 139°54'0 0.0
2014-Jul-20 00:29N 35°37' E 139°54'0 0.0
2014-Jul-19 23:32N 35°37' E 139°54'0 0.0
2014-Jul-19 22:32N 35°37' E 139°54'0 0.0
2014-Jul-19 21:32N 35°37' E 139°54'0 0.0
2014-Jul-19 20:32N 35°37' E 139°54'0 0.0
2014-Jul-19 19:29N 35°37' E 139°54'0 0.0
2014-Jul-19 18:32N 35°37' E 139°54'0 0.0
2014-Jul-19 17:26N 35°37' E 139°54'1 1.1
2014-Jul-19 16:33N 35°36' E 139°54'1212.2
2014-Jul-19 15:34N 35°25' E 139°47'1110.9
2014-Jul-19 14:34N 35°14' E 139°47'1312.6
2014-Jul-19 13:33N 35°02' E 139°44'20 8.2
2014-Jul-19 11:04N 34°59' E 140°09'6411.0
2014-Jul-19 05:13N 35°57' E 140°44'  
2014-Jul-16 21:28N 35°58' E 140°42'  

Dump ship's entire track history